Albany, NY

10:53 PM EDT on October 18, 2017 (GMT -0400)
Albany International

Weather History for KALB - November, 2012

Change the Weather History Date:

Saturday, November 3, 2012

  Actual Average Record
Temperature  
Mean Temperature 42 °F 44 °F  
Max Temperature 46 °F 53 °F 75 °F (1990)
Min Temperature 37 °F 35 °F 20 °F (1980)
Degree Days  
Heating Degree Days 23 21  
Month to date heating degree days 63 63  
Since 1 July heating degree days 549 708  
Cooling Degree Days 0 0  
Month to date cooling degree days 0 0  
Year to date cooling degree days 814 598  
Moisture  
Dew Point 31 °F    
Average Humidity 66    
Maximum Humidity 79    
Minimum Humidity 53    
Precipitation  
Precipitation T in 0.12 in 3.28 in (1927)
Month to date precipitation 0.04 0.35  
Year to date precipitation 32.11 33.48  
Snow  
Snow 0.00 in 0.00 in 0.90 in (1951)
Month to date snowfall 0.0 0.1  
Since 1 July snowfall 0.0 0.4  
Since 1 September snowfall 0.0 0.4  
Snow Depth 0.00 in    
Sea Level Pressure  
Sea Level Pressure 29.85 in    
Wind  
Wind Speed 12 mph (WNW)    
Max Wind Speed 21 mph    
Max Gust Speed 26 mph    
Visibility 10 miles    
Events Snow    
T = Trace of Precipitation, MM = Missing Value Source: NWS Daily Summary

Daily Weather History Graph

Daily Weather History Graph

Search for Another Location

Airport or City:

Trip Planner

Search our weather history database for the weather conditions in past years. The results will help you decide how hot, cold, wet, or windy it might be!

Date:

Astronomy

Nov. 03, 2012 Rise Set
Actual Time 7:32 AM EDT 5:44 PM EDT
Civil Twilight 7:02 AM EDT 6:14 PM EDT
Nautical Twilight 6:29 AM EDT 6:47 PM EDT
Astronomical Twilight 5:56 AM EDT 7:20 PM EDT
Moon 9:21 PM EDT (11/3) 11:37 AM EDT (11/3)
Length of Visible Light 11h 11m
Length of Day
10h 12m
Waning Gibbous, 80% of the Moon is Illuminated
Nov 3
Waning Gibbous
Nov 6
Last Quarter
Nov 13
New
Nov 20
First Quarter
Nov 28
Full

Hourly Weather History & Observations

Time (EDT) Temp. Windchill Dew Point Humidity Pressure Visibility Wind Dir Wind Speed Gust Speed Precip Events Conditions
12:51 AM 41.0 °F 35.8 °F 34.0 °F 76% 29.73 in 10.0 mi West 8.1 mph - N/A   Overcast
1:51 AM 39.9 °F 34.5 °F 34.0 °F 79% 29.74 in 10.0 mi West 8.1 mph - 0.00 in   Unknown
2:51 AM 39.9 °F 33.4 °F 33.1 °F 77% 29.75 in 10.0 mi West 10.4 mph - 0.00 in   Overcast
3:51 AM 39.9 °F 34.5 °F 33.1 °F 77% 29.75 in 10.0 mi West 8.1 mph - N/A   Mostly Cloudy
4:51 AM 39.9 °F 32.9 °F 32.0 °F 73% 29.76 in 10.0 mi WNW 11.5 mph - N/A   Mostly Cloudy
5:51 AM 39.9 °F 33.4 °F 30.9 °F 70% 29.78 in 10.0 mi WNW 10.4 mph - N/A   Mostly Cloudy
6:51 AM 37.9 °F 30.0 °F 30.9 °F 76% 29.80 in 10.0 mi West 12.7 mph 20.7 mph N/A   Mostly Cloudy
7:51 AM 37.9 °F 30.0 °F 30.0 °F 73% 29.82 in 10.0 mi West 12.7 mph - N/A   Mostly Cloudy
8:51 AM 37.9 °F 30.9 °F 30.9 °F 76% 29.84 in 10.0 mi WNW 10.4 mph - N/A   Mostly Cloudy
9:51 AM 41.0 °F 33.1 °F 30.9 °F 67% 29.85 in 10.0 mi WNW 15.0 mph - N/A   Mostly Cloudy
10:51 AM 43.0 °F 36.8 °F 32.0 °F 65% 29.86 in 10.0 mi WNW 11.5 mph - N/A   Mostly Cloudy
11:51 AM 44.1 °F 37.4 °F 30.9 °F 60% 29.86 in 10.0 mi WNW 13.8 mph - N/A   Mostly Cloudy
12:51 PM 45.0 °F 37.4 °F 30.9 °F 58% 29.85 in 10.0 mi WNW 18.4 mph 23.0 mph N/A   Mostly Cloudy
1:51 PM 45.0 °F 39.3 °F 30.9 °F 58% 29.85 in 10.0 mi WNW 11.5 mph 24.2 mph N/A   Mostly Cloudy
2:51 PM 45.0 °F 38.9 °F 30.9 °F 58% 29.85 in 10.0 mi WNW 12.7 mph 21.9 mph N/A   Mostly Cloudy
3:51 PM 44.1 °F 35.9 °F 30.0 °F 58% 29.86 in 10.0 mi WNW 19.6 mph 23.0 mph N/A   Mostly Cloudy
4:51 PM 44.1 °F 36.5 °F 28.9 °F 55% 29.88 in 10.0 mi NW 17.3 mph 24.2 mph N/A   Mostly Cloudy
5:51 PM 42.1 °F 34.9 °F 28.9 °F 60% 29.89 in 10.0 mi WNW 13.8 mph 21.9 mph N/A   Mostly Cloudy
6:51 PM 41.0 °F 34.3 °F 28.9 °F 62% 29.90 in 10.0 mi WNW 11.5 mph - N/A   Scattered Clouds
7:51 PM 39.9 °F 33.4 °F 28.9 °F 65% 29.92 in 10.0 mi WNW 10.4 mph 21.9 mph N/A   Mostly Cloudy
8:51 PM 39.0 °F 31.4 °F 28.9 °F 67% 29.93 in 10.0 mi West 12.7 mph - N/A   Scattered Clouds
9:51 PM 39.0 °F 31.4 °F 28.9 °F 67% 29.94 in 10.0 mi NW 12.7 mph - N/A   Scattered Clouds
10:51 PM 37.9 °F 30.5 °F 30.0 °F 73% 29.94 in 10.0 mi WNW 11.5 mph - N/A   Scattered Clouds
11:51 PM 37.9 °F 32.1 °F 28.9 °F 70% 29.94 in 10.0 mi WNW 8.1 mph 18.4 mph N/A   Scattered Clouds